1504962001.15,14604,15.63,73420.0,7.33,-3.23,-4.13,0,*79
1504962002.43,14605,15.63,73428.3,7.31,-3.47,-5.23,0,*7A
1504962003.64,14606,15.63,73426.0,7.31,-6.09,-8.33,0,*7A
1504962004.83,14607,15.63,73422.8,7.33,-6.77,-8.75,0,*72
1504962006.02,14608,15.63,73436.5,7.33,-9.97,-11.41,0,*43
1504962007.22,14609,15.63,73428.3,7.33,-13.73,-14.19,0,*7B
1504962008.45,14610,15.63,73420.0,7.31,-11.41,-11.15,0,*7B
1504962009.67,14611,15.63,73424.3,7.29,-8.93,-9.57,0,*7B
1504962010.86,14612,15.63,73426.3,7.29,-6.59,-8.45,0,*72
1504962012.1,14613,15.63,73428.3,7.27,-5.15,-8.67,0,*76
1504962013.32,14614,15.63,73426.3,7.25,-3.83,-7.73,0,*70
1504962014.53,14615,15.63,73420.5,7.19,-2.23,-6.05,0,*75
1504962015.77,14616,15.63,73430.8,7.19,-1.51,-5.03,0,*75
1504962017.01,14617,15.63,73420.8,7.17,-2.03,-4.77,0,*7C
1504962018.26,14618,15.63,73420.0,7.15,-1.39,-2.95,0,*71
1504962019.5,14619,15.63,73412.0,7.15,0.17,-0.27,0,*5B
1504962020.75,14620,15.63,73408.8,7.11,1.71,1.97,0,*73
1504962021.92,14621,15.63,73400.5,7.09,2.27,2.31,0,*74
1504962023.17,14622,15.63,73394.0,7.07,2.21,2.21,0,*7E
1504962024.39,14623,15.63,73384.0,7.05,2.77,2.73,0,*79
1504962025.6,14624,15.63,73388.8,7.03,2.61,2.65,0,*78
1504962026.81,14625,15.63,73390.0,6.99,1.79,1.75,0,*73
1504962028.03,14626,15.63,73400.8,6.95,3.23,3.25,0,*76
1504962029.28,14627,15.63,73390.3,6.95,3.23,3.23,0,*71
1504962030.51,14628,15.63,73396.5,6.95,3.25,3.37,0,*7D
1504962031.74,14629,15.63,73386.8,6.93,3.07,3.19,0,*76
1504962032.97,14630,15.63,73376.3,6.93,2.39,2.39,0,*71
1504962034.19,14631,15.63,73388.5,6.89,1.63,1.59,0,*72
1504962035.45,14632,15.63,73362.0,6.87,1.09,1.09,0,*76
1504962036.63,14633,15.63,73390.5,6.85,1.01,1.01,0,*75
1504962037.87,14634,15.63,73400.3,6.81,1.93,1.93,0,*76
1504962039.11,14635,15.63,73396.3,6.81,0.87,0.71,0,*7E
1504962040.32,14636,15.63,73388.0,6.75,1.09,1.01,0,*77
1504962041.54,14637,15.63,73388.3,6.75,1.59,1.47,0,*71
1504962042.77,14638,15.63,73370.5,6.75,1.97,1.93,0,*75
1504962043.97,14639,15.63,73362.8,6.71,1.89,1.83,0,*7E
1504962045.22,14640,15.63,73362.8,6.69,2.05,2.01,0,*77
1504962046.4,14641,15.63,73364.3,6.67,2.35,2.27,0,*7F
1504962047.62,14642,15.63,73358.5,6.67,3.19,3.19,0,*7F
1504962048.83,14643,15.63,73354.3,6.67,3.19,3.29,0,*7D
1504962050.06,14644,15.63,73352.0,6.65,2.91,2.81,0,*7A
1504962051.29,14645,15.63,73364.8,6.63,2.43,2.47,0,*78
1504962052.53,14646,15.63,73370.5,6.61,2.65,2.73,0,*7A
1504962053.79,14647,15.63,73360.3,6.61,3.15,3.11,0,*78
1504962055.05,14648,15.63,73360.0,6.61,3.45,3.45,0,*73
1504962056.24,14649,15.63,73364.0,6.61,3.55,3.55,0,*72
1504962057.47,14650,15.63,73370.0,6.61,3.33,3.25,0,*7D
1504962058.72,14651,15.63,73372.3,6.61,3.45,3.37,0,*7E
1504962059.93,14652,15.63,73376.3,6.59,3.55,3.49,0,*7E
1504962061.16,14653,15.63,73374.5,6.61,3.63,3.71,0,*7A
1504962062.42,14654,15.63,73378.5,6.61,3.23,3.15,0,*7B
1504962063.67,14655,15.63,73378.0,6.61,3.37,3.33,0,*7B
1504962064.91,14656,15.63,73382.3,6.59,3.23,3.23,0,*77
1504962066.12,14657,15.63,73384.8,6.59,2.99,3.15,0,*73
1504962067.38,14658,15.63,73388.0,6.57,3.11,3.07,0,*70
1504962068.63,14659,15.63,73386.0,6.53,3.67,3.79,0,*7D
1504962069.86,14660,15.63,73372.0,6.53,4.01,4.07,0,*7E
1504962071.06,14661,15.63,73366.8,6.53,4.11,4.19,0,*71
1504962072.29,14662,15.63,73364.8,6.53,3.89,3.97,0,*75
1504962073.52,14663,15.63,73368.3,6.57,3.93,4.05,0,*77
1504962074.76,14664,15.63,73366.0,6.59,3.75,3.75,0,*76
1504962076.02,14665,15.63,73366.5,6.57,3.45,3.45,0,*79
1504962077.28,14666,15.63,73364.8,6.53,3.15,3.07,0,*7D
1504962078.54,14667,15.63,73362.0,6.57,3.33,3.41,0,*7E
1504962079.76,14668,15.63,73368.3,6.53,3.25,3.19,0,*7F
1504962080.97,14669,15.63,73378.8,6.51,3.29,3.25,0,*7F
1504962082.2,14670,15.63,73384.5,6.51,3.25,3.19,0,*74
1504962083.43,14671,15.63,73390.5,6.49,3.45,3.37,0,*76
1504962084.64,14672,15.63,73382.8,6.49,2.91,2.89,0,*79
1504962085.87,14673,15.63,73382.3,6.49,3.11,3.11,0,*71
1504962087.1,14674,15.63,73378.3,6.47,3.67,3.59,0,*75
1504962088.33,14675,15.63,73378.8,6.49,4.05,4.05,0,*77
1504962089.52,14676,15.63,73372.8,6.49,4.33,4.41,0,*71
1504962090.7,14677,15.63,73374.5,6.49,4.33,4.33,0,*75
1504962091.92,14678,15.63,73364.5,6.49,3.97,3.97,0,*7A
1504962093.13,14679,15.63,73370.5,6.49,2.99,3.03,0,*79
1504962094.36,14680,15.63,73364.0,6.49,3.37,3.45,0,*78
1504962095.55,14681,15.63,73362.3,6.49,4.07,4.07,0,*7C
1504962096.73,14682,15.63,73356.5,6.49,4.33,4.41,0,*7A
1504962097.9,14683,15.63,73362.0,6.49,4.19,4.19,0,*7E
1504962099.11,14684,15.63,73356.5,6.49,4.31,4.15,0,*7F
1504962100.32,14685,15.63,73364.0,6.51,4.33,4.45,0,*70
1504962101.52,14686,15.63,73358.0,6.51,4.37,4.49,0,*7B
1504962102.78,14687,15.63,73352.8,6.51,4.59,4.59,0,*73
1504962104.01,14688,15.63,73354.8,6.49,4.59,4.59,0,*75
1504962105.21,14689,15.63,73350.3,6.51,4.49,4.57,0,*72
1504962106.48,14690,15.63,73354.5,6.51,4.59,4.71,0,*7F
1504962107.74,14691,15.63,73358.3,6.53,4.71,4.79,0,*7E
1504962109.0,14692,15.63,73362.8,6.53,4.59,4.67,0,*78
1504962110.25,14693,15.63,73364.5,6.53,4.67,4.67,0,*74
1504962111.51,14694,15.63,73372.8,6.53,4.67,4.71,0,*74
1504962112.77,14695,15.63,73380.0,6.57,4.63,4.63,0,*76
1504962113.98,14696,15.63,73386.3,6.57,4.23,4.23,0,*75
1504962115.18,14697,15.63,73390.5,6.57,4.15,4.15,0,*74
1504962116.36,14698,15.63,73380.0,6.59,4.15,4.19,0,*79
1504962117.55,14699,15.63,73386.0,6.59,3.93,3.93,0,*74
1504962118.76,14700,15.63,73380.5,6.59,3.93,4.05,0,*7D
1504962120.01,14701,15.63,73372.5,6.57,3.19,3.19,0,*7A
1504962121.27,14702,15.63,73366.5,6.53,3.41,3.37,0,*7C
1504962122.53,14703,15.63,73352.0,6.53,3.07,3.03,0,*78
1504962123.75,14704,15.63,73350.3,6.53,3.25,3.19,0,*74
1504962125.01,14705,15.63,73354.5,6.53,3.15,3.15,0,*7A
1504962126.25,14706,15.63,73362.8,6.51,3.29,3.37,0,*74
1504962127.47,14707,15.63,73384.5,6.51,3.53,3.63,0,*79
1504962128.7,14708,15.63,73394.3,6.51,3.79,3.85,0,*76
1504962129.93,14709,15.63,73392.8,6.51,3.75,3.85,0,*7B
1504962131.19,14710,15.63,73394.3,6.51,3.67,3.71,0,*7B
1504962132.43,14711,15.63,73396.5,6.49,4.05,4.05,0,*74
1504962133.63,14712,15.63,73396.3,6.53,4.11,4.19,0,*74
1504962134.83,14713,15.63,73394.0,6.53,4.33,4.45,0,*7C
1504962136.03,14714,15.63,73388.5,6.53,4.81,4.89,0,*72
1504962137.25,14715,15.63,73390.8,6.57,5.19,5.19,0,*7F
1504962138.46,14716,15.63,73398.0,6.57,5.11,5.19,0,*74
1504962139.7,14717,15.63,73394.5,6.59,4.97,5.01,0,*7D
1504962140.92,14718,15.63,73388.5,6.61,4.15,4.37,0,*77
1504962142.15,14719,15.63,73402.0,6.61,4.27,4.31,0,*71
1504962143.36,14720,15.63,73402.0,6.59,4.05,4.07,0,*75
1504962144.61,14721,15.63,73396.0,6.61,3.97,3.97,0,*7D
1504962145.85,14722,15.63,73400.3,6.61,4.31,4.37,0,*78
1504962147.11,14723,15.63,73392.3,6.61,4.63,4.67,0,*7B
1504962148.37,14724,15.63,73394.3,6.61,4.67,4.79,0,*77
1504962149.57,14725,15.63,73388.5,6.63,4.79,4.89,0,*74
1504962150.75,14726,15.63,73404.0,6.63,4.19,4.33,0,*70
1504962151.95,14727,15.63,73392.3,6.65,3.59,3.59,0,*7F
1504962153.21,14728,15.63,73388.0,6.65,3.15,3.03,0,*77
1504962154.41,14729,15.63,73386.5,6.63,3.19,3.25,0,*78
1504962155.62,14730,15.63,73386.0,6.63,2.95,3.15,0,*76
1504962156.85,14731,15.63,73378.0,6.65,2.65,2.69,0,*74
1504962158.08,14732,15.63,73380.3,6.61,2.31,2.51,0,*79
1504962159.34,14733,15.63,73376.5,6.61,2.73,3.15,0,*7F
1504962160.53,14734,15.63,73376.3,6.61,3.55,3.85,0,*74
1504962161.76,14735,15.63,73378.0,6.61,3.59,3.75,0,*76
1504962162.99,14736,15.63,73380.3,6.61,3.97,4.07,0,*75
1504962164.2,14737,15.63,73380.8,6.59,3.97,4.07,0,*7F
1504962165.38,14738,15.63,73368.3,6.59,4.19,4.15,0,*72
1504962166.59,14739,15.63,73382.0,6.61,4.15,4.37,0,*74
1504962167.79,14740,15.63,73398.3,6.61,4.19,4.27,0,*77
1504962169.03,14741,15.63,73404.0,6.61,4.27,4.31,0,*7C
1504962170.23,14742,15.63,73394.5,6.61,4.45,4.57,0,*7B
1504962171.44,14743,15.63,73392.8,6.63,4.57,4.59,0,*75
1504962172.69,14744,15.63,73402.5,6.65,4.59,4.59,0,*7A
1504962173.89,14745,15.63,73390.5,6.65,4.45,4.49,0,*77
1504962175.09,14746,15.63,73388.5,6.65,4.45,4.41,0,*7C
1504962176.3,14747,15.63,73394.0,6.65,4.33,4.41,0,*7C
1504962177.51,14748,15.63,73392.0,6.65,4.33,4.41,0,*73
1504962178.77,14749,15.63,73394.3,6.65,4.59,4.59,0,*77
1504962180.0,14750,15.63,73406.8,6.67,4.93,5.05,0,*73
1504962181.21,14751,15.63,73384.0,6.67,4.85,4.93,0,*7B
1504962182.39,14752,15.63,73392.5,6.67,4.27,4.27,0,*7F
1504962183.58,14753,15.63,73394.5,6.67,4.37,4.49,0,*77
1504962184.79,14754,15.63,73390.5,6.71,4.53,4.63,0,*7D
1504962185.99,14755,15.63,73384.8,6.69,4.15,4.19,0,*7A
1504962187.21,14756,15.63,73390.3,6.69,4.67,4.85,0,*79
1504962188.42,14757,15.63,73384.0,6.69,4.85,5.07,0,*7F
1504962189.66,14758,15.63,73384.0,6.71,4.79,5.01,0,*7C
1504962190.91,14759,15.63,73394.5,6.73,4.93,5.05,0,*7F
1504962192.11,14760,15.63,73396.0,6.73,5.29,5.37,0,*74
1504962193.29,14761,15.63,73394.0,6.75,5.15,5.23,0,*79
1504962194.47,14762,15.63,73396.5,6.75,5.37,5.41,0,*7E
1504962195.63,14763,15.63,73394.8,6.79,5.45,5.45,0,*72
1504962196.79,14764,15.63,73398.3,6.79,5.45,5.45,0,*75
1504962197.97,14765,15.63,73398.0,6.83,5.37,5.33,0,*75
1504962199.17,14766,15.63,73398.5,6.83,5.71,5.81,0,*7D
1504962200.41,14767,15.63,73396.3,6.87,5.93,5.95,0,*71
1504962201.61,14768,15.63,73398.5,6.87,5.41,5.49,0,*70
1504962202.81,14769,15.63,73402.5,6.89,5.67,5.73,0,*72
1504962203.99,14770,15.63,73396.0,6.93,5.41,5.45,0,*70
1504962205.16,14771,15.63,73400.8,6.93,4.53,4.49,0,*7E
1504962206.39,14772,15.63,73400.3,6.95,5.05,5.11,0,*75
1504962207.59,14773,15.63,73396.8,6.93,5.41,5.55,0,*72
1504962208.84,14774,15.63,73380.3,6.99,5.55,5.77,0,*7A
1504962210.07,14775,15.63,73382.3,6.99,5.85,6.25,0,*72
1504962211.27,14776,15.63,73384.8,7.05,6.11,6.39,0,*76
1504962212.52,14777,15.63,73386.3,7.07,6.35,6.53,0,*7F
1504962213.73,14778,15.63,73398.0,7.09,6.29,6.51,0,*71
1504962214.96,14779,15.63,73384.0,7.13,5.93,6.13,0,*7F
1504962216.14,14780,15.63,73388.3,7.17,4.33,4.89,0,*77
1504962217.36,14781,15.63,73384.0,7.19,2.99,4.05,0,*7A
1504962218.57,14782,15.63,73388.0,7.25,3.79,5.11,0,*7D
1504962219.8,14783,15.63,73390.5,7.27,2.73,4.23,0,*75
1504962221.03,14784,15.63,73408.3,7.29,-2.63,0.33,0,*65
1504962222.22,14785,15.63,73398.0,7.29,-6.81,-3.03,0,*71
1504962223.45,14786,15.63,73390.8,7.29,-11.55,-6.89,0,*4A
1504962224.68,14787,15.63,73392.3,7.25,-12.65,-7.05,0,*42
1504962225.93,14788,15.63,73396.3,7.27,-13.97,-7.49,0,*4B
1504962227.19,14789,15.63,73386.5,7.25,-13.83,-6.97,0,*4F
1504962228.41,14790,15.63,73392.0,7.19,-11.41,-6.35,0,*4C
1504962229.61,14791,15.63,73384.3,7.21,-11.19,-6.81,0,*44
1504962230.83,14792,15.63,73402.0,7.21,-8.07,-4.37,0,*7F
1504962232.05,14793,15.63,73406.3,7.21,-6.59,-2.75,0,*7B
1504962233.28,14794,15.63,73392.5,7.21,-7.73,-2.83,0,*7C
1504962234.49,14795,15.63,73366.8,7.21,-8.89,-3.63,0,*78
1504962235.73,14796,15.63,73364.5,7.19,-4.89,-0.73,0,*4E
1504962236.95,14797,15.63,73392.5,7.19,-2.27,0.63,0,*61
1504962238.16,14798,15.63,73404.0,7.21,-2.35,0.87,0,*6C
1504962239.37,14799,15.63,73398.8,7.21,-3.11,1.37,0,*50
1504962240.57,14800,15.63,73382.3,7.25,-4.37,0.79,0,*63
1504962241.77,14801,15.63,73398.5,7.25,-4.57,0.83,0,*61
1504962242.95,14802,15.63,73400.5,7.21,-4.99,0.43,0,*68
1504962244.17,14803,15.63,73426.0,7.25,-5.23,-0.41,0,*42
1504962245.36,14804,15.63,73400.5,7.25,-8.59,-2.39,0,*78
1504962246.59,14805,15.63,73388.8,7.25,-10.15,-4.69,0,*4B
1504962247.83,14806,15.63,73414.3,7.19,-9.31,-4.89,0,*77
1504962249.03,14807,15.63,73404.8,7.21,-9.01,-6.01,0,*7C
1504962250.27,14808,15.63,73414.0,7.19,-8.67,-5.31,0,*79
1504962251.53,14809,15.63,73404.5,7.19,-8.11,-7.01,0,*78
1504962252.75,14810,15.63,73408.8,7.17,-9.05,-7.31,0,*79
1504962254.03,14811,15.63,73386.0,7.15,-11.55,-7.27,0,*41
1504962255.27,14812,15.63,73404.5,7.15,-10.45,-6.19,0,*4E
1504962256.51,14813,15.63,73404.3,7.13,-9.53,-5.77,0,*7D
1504962257.72,14814,15.63,73416.8,7.11,-8.75,-4.09,0,*75
1504962258.99,14815,15.63,73422.0,7.11,-5.93,-2.11,0,*7E
1504962260.17,14816,15.63,73422.0,7.09,-4.65,-1.25,0,*78
1504962261.39,14817,15.63,73430.5,7.09,-3.75,-1.35,0,*7E
1504962262.61,14818,15.63,73420.8,7.09,-4.29,-2.75,0,*78
1504962263.79,14819,15.63,73432.0,7.09,-4.13,-3.15,0,*77
1504962264.98,14820,15.63,73432.8,7.09,-4.41,-4.13,0,*7B
1504962266.22,14821,15.63,73440.5,7.09,-5.85,-6.27,0,*76
1504962267.43,14822,15.63,73436.8,7.09,-7.83,-7.77,0,*75
1504962268.65,14823,15.63,73428.8,7.09,-9.75,-9.15,0,*79
1504962269.86,14824,15.63,73432.3,7.09,-9.61,-7.83,0,*7A
1504962271.07,14825,15.63,73444.5,7.05,-9.67,-7.43,0,*7D
1504962272.28,14826,15.63,73442.8,7.05,-9.61,-7.19,0,*77
1504962273.53,14827,15.63,73444.5,7.03,-7.23,-5.19,0,*7A
1504962274.72,14828,15.63,73440.0,7.05,-6.89,-4.53,0,*7D
1504962275.95,14829,15.63,73434.8,7.03,-5.97,-3.43,0,*70
1504962277.2,14830,15.63,73436.5,6.99,-4.57,-2.71,0,*77
1504962278.43,14831,15.63,73434.8,6.97,-2.51,-1.09,0,*74
1504962279.62,14832,15.63,73428.3,6.97,-0.03,0.71,0,*61
1504962280.85,14833,15.63,73428.0,6.95,1.97,2.27,0,*72
1504962282.05,14834,15.63,73426.5,6.93,2.89,2.99,0,*7A
1504962283.25,14835,15.63,73418.3,6.91,2.95,2.99,0,*74
1504962284.51,14836,15.63,73416.3,6.91,3.49,3.49,0,*7B
1504962285.74,14837,15.63,73412.8,6.91,3.59,3.67,0,*77
1504962286.97,14838,15.63,73414.3,6.91,3.59,3.67,0,*78
1504962288.21,14839,15.63,73416.8,6.91,3.71,3.81,0,*7B
1504962289.4,14840,15.63,73414.8,6.89,3.53,3.55,0,*75
1504962290.61,14841,15.63,73412.0,6.89,3.63,3.75,0,*75
1504962291.84,14842,15.63,73410.3,6.87,3.89,4.01,0,*78
1504962293.05,14843,15.63,73408.0,6.87,3.25,3.29,0,*72
1504962294.25,14844,15.63,73402.5,6.87,3.25,3.25,0,*79
1504962295.48,14845,15.63,73400.0,6.85,3.53,3.49,0,*71
1504962296.71,14846,15.63,73398.5,6.85,3.41,3.49,0,*71
1504962297.88,14847,15.63,73398.8,6.85,3.63,3.59,0,*71
1504962299.08,14848,15.63,73396.8,6.87,3.59,3.63,0,*7C
1504962300.31,14849,15.63,73392.3,6.85,3.49,3.49,0,*76
1504962301.51,14850,15.63,73390.5,6.83,3.59,3.71,0,*72
1504962302.69,14851,15.63,73390.8,6.83,4.15,4.27,0,*78
1504962303.89,14852,15.63,73390.8,6.81,4.07,4.07,0,*78
1504962305.1,14853,15.63,73392.5,6.83,4.27,4.31,0,*7C
1504962306.31,14854,15.63,73392.3,6.81,4.37,4.41,0,*7F
1504962307.49,14855,15.63,73388.3,6.83,3.85,3.81,0,*79
1504962308.71,14856,15.63,73390.3,6.81,3.25,3.37,0,*7F
1504962309.95,14857,15.63,73384.8,6.83,3.45,3.45,0,*7F
1504962311.14,14858,15.63,73390.3,6.81,3.55,3.55,0,*72
1504962312.34,14859,15.63,73390.5,6.81,3.25,3.25,0,*73
1504962313.59,14860,15.63,73390.8,6.81,3.37,3.37,0,*79
1504962314.78,14861,15.63,73392.8,6.79,3.29,3.23,0,*75
1504962316.01,14862,15.63,73390.3,6.75,3.03,3.03,0,*70
1504962317.26,14863,15.63,73384.5,6.73,2.77,2.69,0,*78
1504962318.47,14864,15.63,73372.3,6.71,3.03,2.99,0,*70
1504962319.7,14865,15.63,73372.3,6.71,3.33,3.33,0,*73
1504962320.95,14866,15.63,73372.5,6.69,2.85,2.73,0,*70
1504962322.19,14867,15.63,73376.5,6.69,2.89,2.85,0,*74
1504962323.42,14868,15.63,73372.5,6.69,3.25,3.23,0,*71
1504962324.65,14869,15.63,73376.3,6.67,3.33,3.41,0,*7D
1504962325.88,14870,15.63,73376.8,6.67,3.19,3.19,0,*70
1504962327.09,14871,15.63,73382.3,6.67,3.29,3.33,0,*7A
1504962328.31,14872,15.63,73382.0,6.63,3.53,3.53,0,*76
1504962329.54,14873,15.63,73382.8,6.65,3.97,4.07,0,*7F
1504962330.75,14874,15.63,73376.5,6.65,3.89,3.89,0,*76
1504962331.98,14875,15.63,73382.8,6.67,3.67,3.67,0,*75
1504962333.24,14876,15.63,73380.5,6.65,3.41,3.37,0,*75
1504962334.48,14877,15.63,73380.8,6.63,3.15,3.15,0,*73
1504962335.72,14878,15.63,73380.0,6.63,3.07,3.15,0,*7F
1504962336.92,14879,15.63,73394.8,6.61,3.25,3.25,0,*7F
1504962338.18,14880,15.63,73388.3,6.61,3.45,3.37,0,*7C
1504962339.38,14881,15.63,73390.8,6.61,3.55,3.59,0,*74
1504962340.58,14882,15.63,73396.0,6.61,3.81,3.81,0,*7B
1504962341.79,14883,15.63,73392.3,6.61,3.85,3.85,0,*7A
1504962343.04,14884,15.63,73398.3,6.61,3.71,3.75,0,*79
1504962344.23,14885,15.63,73402.0,6.59,3.81,3.81,0,*77
1504962345.41,14886,15.63,73406.8,6.59,4.19,4.27,0,*79
1504962346.66,14887,15.63,73402.5,6.61,3.97,4.05,0,*72
1504962347.87,14888,15.63,73400.0,6.61,4.07,4.15,0,*72
1504962349.11,14889,15.63,73400.3,6.59,4.05,4.05,0,*7B
1504962350.34,14890,15.63,73404.0,6.61,4.05,4.07,0,*7A
1504962351.55,14891,15.63,73400.5,6.61,3.93,3.85,0,*7E
1504962352.76,14892,15.63,73400.0,6.61,3.93,3.93,0,*7A
1504962353.99,14893,15.63,73402.0,6.61,4.05,4.07,0,*79
1504962355.2,14894,15.63,73410.5,6.61,4.15,4.15,0,*7C
1504962356.4,14895,15.63,73412.0,6.61,4.19,4.27,0,*70
1504962357.61,14896,15.63,73402.5,6.61,4.07,4.07,0,*7E
1504962358.81,14897,15.63,73400.8,6.61,3.93,3.85,0,*78
1504962360.02,14898,15.63,73392.8,6.61,4.07,4.07,0,*70
1504962361.24,14899,15.63,73390.5,6.61,4.37,4.41,0,*70
1504962362.48,14900,15.63,73392.8,6.63,4.59,4.71,0,*78
1504962363.71,14901,15.63,73392.5,6.63,4.79,4.93,0,*77
1504962364.91,14902,15.63,73390.0,6.65,4.81,4.89,0,*7E
1504962366.15,14903,15.63,73394.0,6.65,5.05,5.11,0,*72
1504962367.33,14904,15.63,73406.8,6.67,5.15,5.19,0,*7E
1504962368.54,14905,15.63,73410.5,6.67,4.75,4.81,0,*78
1504962369.74,14906,15.63,73406.3,6.69,4.41,4.41,0,*7E
1504962370.94,14907,15.63,73402.8,6.69,4.19,4.19,0,*7F
1504962372.14,14908,15.63,73406.5,6.69,4.41,4.41,0,*70
1504962373.37,14909,15.63,73416.8,6.69,4.67,4.85,0,*7D
1504962374.63,14910,15.63,73410.8,6.69,4.67,4.75,0,*7A
1504962375.84,14911,15.63,73392.3,6.73,4.53,4.57,0,*77
1504962377.05,14912,15.63,73382.8,6.71,5.01,5.07,0,*74
1504962378.29,14913,15.63,73360.8,6.73,4.93,5.11,0,*7A
1504962379.52,14914,15.63,73372.5,6.73,4.81,4.93,0,*75
1504962380.72,14915,15.63,73368.3,6.73,4.33,4.41,0,*72
1504962381.9,14916,15.63,73364.8,6.75,4.41,4.53,0,*71
1504962383.11,14917,15.63,73366.5,6.75,4.81,4.93,0,*70
1504962384.35,14918,15.63,73370.5,6.75,4.59,4.71,0,*76
1504962385.55,14919,15.63,73370.5,6.75,5.15,5.27,0,*7C
1504962386.73,14920,15.63,73372.0,6.75,5.23,5.37,0,*72
1504962387.96,14921,15.63,73374.0,6.79,4.93,4.97,0,*7E
1504962389.13,14922,15.63,73364.5,6.79,5.15,5.19,0,*75
1504962390.31,14923,15.63,73358.3,6.83,5.45,5.49,0,*71
1504962391.52,14924,15.63,73362.8,6.83,5.77,5.89,0,*7B
1504962392.75,14925,15.63,73364.5,6.85,5.73,5.85,0,*74
1504962393.98,14926,15.63,73356.0,6.87,5.49,5.51,0,*75
1504962395.2,14927,15.63,73386.8,6.89,5.51,5.73,0,*73
1504962396.43,14928,15.63,73360.5,6.91,6.13,6.25,0,*70
1504962397.64,14929,15.63,73368.8,6.93,6.21,6.35,0,*73
1504962398.84,14930,15.63,73372.8,6.95,7.01,6.93,0,*72
1504962400.06,14931,15.63,73350.5,6.99,6.91,6.07,0,*7A
1504962401.27,14932,15.63,73358.0,7.05,5.93,3.89,0,*7F
1504962402.47,14933,15.63,73372.8,7.09,3.59,0.29,0,*4B
1504962403.67,14934,15.63,73374.3,7.13,2.77,-0.69,0,*63
1504962404.92,14935,15.63,73366.8,7.15,2.05,0.29,0,*48
1504962406.1,14936,15.63,73368.3,7.17,1.79,-0.03,0,*54
1504962407.32,14937,15.63,73372.3,7.21,-0.11,-1.99,0,*40
1504962408.51,14938,15.63,73380.8,7.25,0.17,-1.51,0,*64
1504962409.76,14939,15.63,73382.3,7.27,-0.19,-2.51,0,*47
1504962410.97,14940,15.63,73382.0,7.27,-0.81,-1.79,0,*41
1504962412.19,14941,15.63,73384.8,7.27,-1.21,-1.67,0,*74
1504962413.41,14942,15.63,73380.0,7.27,-3.07,-3.03,0,*71
1504962414.62,14943,15.63,73386.3,7.29,-4.93,-6.81,0,*7B
1504962415.85,14944,15.63,73374.0,7.33,-7.11,-8.07,0,*7E
1504962417.09,14945,15.63,73376.8,7.33,-5.77,-7.01,0,*74
1504962418.33,14946,15.63,73384.3,7.33,-5.27,-6.97,0,*7C
1504962419.56,14947,15.63,73390.0,7.37,-3.59,-6.51,0,*7C
1504962420.75,14948,15.63,73390.5,7.37,-3.15,-7.23,0,*7F
1504962421.94,14949,15.63,73390.8,7.37,-4.45,-9.19,0,*7B
1504962423.16,14950,15.63,73382.5,7.37,-6.13,-11.55,0,*43
1504962424.41,14951,15.63,73390.8,7.39,-6.35,-11.51,0,*4C
1504962425.64,14952,15.63,73398.5,7.35,-9.05,-14.23,0,*4F
1504962426.88,14953,15.63,73396.5,7.35,-8.03,-12.43,0,*49
1504962428.12,14954,15.63,73400.0,7.35,-8.55,-13.29,0,*40
1504962429.35,14955,15.63,73414.3,7.33,-8.07,-11.23,0,*48
1504962430.6,14956,15.63,73402.8,7.31,-8.75,-12.35,0,*48
1504962431.82,14957,15.63,73400.0,7.29,-7.83,-11.63,0,*46
1504962433.07,14958,15.63,73408.0,7.29,-7.65,-9.15,0,*79
1504962434.26,14959,15.63,73414.3,7.25,-5.47,-7.11,0,*7C
1504962435.5,14960,15.63,73428.0,7.27,-2.43,-4.73,0,*70
1504962436.71,14961,15.63,73412.8,7.25,-2.39,-5.85,0,*76
1504962437.95,14962,15.63,73412.0,7.25,-2.67,-6.27,0,*75
1504962439.14,14963,15.63,73416.5,7.25,-1.33,-3.83,0,*7D
1504962440.37,14964,15.63,73418.8,7.19,-0.11,-2.11,0,*4E
1504962441.62,14965,15.63,73410.3,7.19,1.59,0.87,0,*4F
1504962442.87,14966,15.63,73408.5,7.19,2.89,2.81,0,*76
1504962444.12,14967,15.63,73400.5,7.19,3.37,3.49,0,*76
1504962445.33,14968,15.63,73400.3,7.15,3.29,3.29,0,*7C
1504962446.59,14969,15.63,73402.3,7.15,3.33,3.11,0,*7D
1504962447.84,14970,15.63,73402.3,7.15,2.47,2.39,0,*7C
1504962449.08,14971,15.63,73410.0,7.13,3.33,3.41,0,*77
1504962450.25,14972,15.63,73408.3,7.13,3.81,3.81,0,*71
1504962451.5,14973,15.63,73408.8,7.11,3.97,3.97,0,*72
1504962452.7,14974,15.63,73412.0,7.11,3.89,3.85,0,*79
1504962453.96,14975,15.63,73412.8,7.11,3.75,3.75,0,*74
1504962455.16,14976,15.63,73422.8,7.11,2.95,2.95,0,*77
1504962456.39,14977,15.63,73408.5,7.07,2.55,2.61,0,*76
1504962457.65,14978,15.63,73438.8,7.07,2.39,2.51,0,*70
1504962458.91,14979,15.63,73462.5,7.03,3.11,3.33,0,*7B
1504962460.16,14980,15.63,73450.5,7.03,2.85,3.07,0,*76
1504962461.39,14981,15.63,73438.5,7.03,1.75,2.25,0,*7A
1504962462.64,14982,15.63,73442.5,6.99,1.25,1.89,0,*7B
1504962463.89,14983,15.63,73430.0,6.99,1.47,2.25,0,*7B
1504962465.1,14984,15.63,73422.8,6.97,0.13,1.55,0,*46
1504962466.34,14985,15.63,73432.5,6.95,0.83,1.67,0,*4D
1504962467.53,14986,15.63,73424.3,6.93,-0.49,0.79,0,*5D
1504962468.74,14987,15.63,73426.0,6.89,-0.41,0.41,0,*54
1504962469.96,14988,15.63,73400.0,6.85,0.71,1.21,0,*4E
1504962471.19,14989,15.63,73406.8,6.83,1.09,1.33,0,*74
1504962472.45,14990,15.63,73384.3,6.81,1.17,1.21,0,*72
1504962473.67,14991,15.63,73380.5,6.81,1.79,1.89,0,*79
1504962474.89,14992,15.63,73382.5,6.75,1.97,1.93,0,*7A
1504962476.12,14993,15.63,73364.5,6.75,1.59,1.59,0,*7F
1504962477.32,14994,15.63,73350.3,6.71,2.55,2.61,0,*7B
1504962478.55,14995,15.63,73330.5,6.71,2.39,2.43,0,*70
1504962479.8,14996,15.63,73326.5,6.73,2.69,2.77,0,*73
1504962481.01,14997,15.63,73330.0,6.71,2.61,2.73,0,*7C
1504962482.24,14998,15.63,73372.8,6.71,2.01,2.05,0,*74
1504962483.44,14999,15.63,73364.3,6.67,1.01,1.25,0,*70
1504962484.67,15000,15.63,73364.8,6.63,0.91,1.63,0,*46
1504962485.92,15001,15.63,73362.8,6.65,0.59,1.37,0,*44
1504962487.14,15002,15.63,73332.3,6.63,1.47,1.93,0,*71
1504962488.38,15003,15.63,73350.0,6.61,2.39,2.61,0,*76
1504962489.6,15004,15.63,73344.8,6.61,2.21,2.31,0,*7D
1504962490.83,15005,15.63,73344.3,6.59,2.43,2.43,0,*76
1504962492.04,15006,15.63,73324.3,6.59,2.43,2.31,0,*70
1504962493.28,15007,15.63,73308.8,6.59,2.17,2.13,0,*70
1504962494.51,15008,15.63,73304.0,6.53,2.47,2.35,0,*74
1504962495.73,15009,15.63,73334.3,6.53,2.25,2.31,0,*75
1504962496.96,15010,15.63,73324.5,6.53,3.03,2.91,0,*72
1504962498.19,15011,15.63,73342.8,6.53,2.95,3.03,0,*77
1504962499.41,15012,15.63,73346.8,6.49,2.77,2.77,0,*71
1504962500.67,15013,15.63,73364.5,6.51,2.69,2.77,0,*76
1504962501.9,15014,15.63,73380.0,6.49,2.89,2.89,0,*77
1504962503.13,15015,15.63,73378.0,6.49,3.37,3.45,0,*73
1504962504.36,15016,15.63,73374.5,6.49,3.03,3.11,0,*76
1504962505.59,15017,15.63,73384.0,6.49,3.49,3.41,0,*7C
1504962506.77,15018,15.63,73380.3,6.49,2.31,2.27,0,*7C
1504962507.97,15019,15.63,73386.5,6.45,2.35,2.39,0,*7A
1504962509.19,15020,15.63,73366.0,6.45,2.05,2.05,0,*7C
1504962510.41,15021,15.63,73368.5,6.45,1.67,1.55,0,*7C
1504962511.61,15022,15.63,73372.3,6.41,1.47,1.41,0,*7C
1504962512.85,15023,15.63,73384.3,6.43,2.73,2.69,0,*72
1504962514.11,15024,15.63,73390.8,6.39,3.03,3.03,0,*73
1504962515.31,15025,15.63,73396.5,6.41,3.53,3.63,0,*7E
1504962516.49,15026,15.63,73396.0,6.41,3.85,3.89,0,*72
1504962517.72,15027,15.63,73410.5,6.43,3.79,3.85,0,*7E
1504962518.96,15028,15.63,73396.5,6.41,3.41,3.41,0,*70
1504962520.19,15029,15.63,73382.0,6.41,2.81,2.81,0,*71
1504962521.4,15030,15.63,73372.8,6.41,2.69,2.65,0,*75
1504962522.6,15031,15.63,73374.5,6.41,2.35,2.43,0,*79
1504962523.83,15032,15.63,73372.5,6.37,2.13,2.13,0,*7A
1504962525.09,15033,15.63,73362.3,6.39,2.17,2.09,0,*7A
1504962526.31,15034,15.63,73358.3,6.37,1.93,1.89,0,*77
1504962527.51,15035,15.63,73358.0,6.37,1.67,1.75,0,*7E
1504962528.76,15036,15.63,73334.5,6.35,1.67,1.89,0,*7C